map of ATH home
ATH - Airport
Location
City:  Athens, Attikí (Attica), Greece
Near (Alt.):Spata
Name:Eleftherios Venizelos International Airport
ICAO:LGAV
IATA:ATH

Details
Type:Airport (Aerodrome, Airfield)
Use:Public/Civil, International (customs port of entry)
Latitude:37°56'11"N (37.936358)
Longitude:23°56'40"E (23.944467)
Datum:WGS 1984
Elevation:308 ft (94 m)
Variation:4.69°E (WMM2015v2 magnetic declination)
0.11° annual change
Runways:2
Longest:13123 × 148 ft (4000 × 45 m), paved

Time
Time Zone:UTC+2 (DST+3)
Local Time:

Weather
METAR:LGAV 041350Z 08006KT 9999 SCT025 BKN070 15/10 Q1017 NOSIG
TAF:LGAV 041100Z 0412/0512 10015KT 9999 SCT020
TEMPO 0418/0503 04015KT
BECMG 0503/0505 09015G28KT PROB30
TEMPO 0419/0506 5000 RA SCT015 BKN020

Related Locations
Nearby:
Farthest:RMT: 11359 mi / 18280 km
Rimatara [Rimatara Airport], PF

Find:

   beyond  
but within

Other Information
Maps:
NOTAMs:
Links:
Sources:

  
  • flag of Greece
  

Sectional Chart

Flight Planning
at skyvector.com

Satellite Image

Google Maps Satellite view

 

Copyright © 2004-2019 Karl L. Swartz. All rights reserved.
The Great Circle Mapper name and logo are trademarks of the Great Circle Mapper.
All other trademarks mentioned herein belong to their respective owners.
Please see credits for attibutions and further copyright information.

  Follow gcmap on Facebook Follow gcmap on Twitter GCmap on LinkedIn

hCard Microformat

Geo Microformat